GEFSSGP_con_cape1000_156.txt.gz
Probability
19 13 6 13 23 16 10 6 0 0 3 10 16 26 35 35 13 13 16 42 58 84 90 97 97 97 100 100 100 100 100 100 100 100 94 94 90 90 94 94 87 90 90 90 90 90 81 84 84
3 6 3 3 10 0 0 0 0 0 3 16 29 29 55 65 45 58 45 58 74 90 90 97 100 100 100 100 100 100 100 100 100 97 94 94 94 94 90 87 87 84 87 87 90 87 84 87 84
0 3 3 3 3 0 0 0 0 3 6 16 32 29 48 71 74 68 68 71 81 87 94 97 100 100 100 100 100 97 97 97 97 97 97 94 90 90 90 87 87 87 84 87 87 84 81 84 90
0 0 3 3 3 3 0 0 0 3 16 26 42 42 52 81 84 84 68 74 84 90 97 100 100 100 100 100 100 97 97 97 97 97 97 97 94 87 87 87 87 87 87 87 87 81 84 77 81
0 0 3 3 0 3 0 0 0 10 19 42 48 68 84 84 81 77 65 81 84 97 97 100 100 100 100 100 97 97 97 97 97 97 97 97 97 90 84 84 87 90 87 87 81 81 84 77 84
0 0 0 0 0 0 0 0 3 16 29 39 55 65 81 87 81 74 71 84 94 94 97 100 100 100 100 100 100 97 97 97 97 97 97 97 97 97 90 84 87 90 84 81 81 81 77 81 87
0 0 3 3 0 0 0 0 3 13 26 35 45 68 90 90 81 81 84 94 94 94 97 100 100 100 100 100 100 100 100 97 97 97 97 97 97 97 94 94 90 90 90 81 77 71 68 71 84
0 0 0 3 0 0 0 0 3 13 29 32 45 71 90 94 84 81 87 90 90 94 97 100 97 100 100 100 100 100 100 100 97 97 97 97 97 94 87 90 90 90 87 84 71 65 61 74 74
0 0 0 0 0 0 3 3 3 16 23 39 58 74 84 90 90 87 84 84 84 87 97 97 94 97 97 97 97 97 100 100 97 97 97 94 77 68 84 81 87 81 77 77 71 68 65 71 74
0 0 0 0 0 0 0 3 3 10 29 58 65 74 90 94 87 94 90 87 87 87 97 94 90 90 94 97 94 94 90 90 87 87 84 48 52 52 71 81 87 81 74 71 71 74 61 42 16
0 0 0 0 0 0 0 3 3 10 32 55 61 74 87 87 90 94 94 90 84 81 87 87 84 74 74 84 87 74 74 68 61 68 52 35 39 48 45 48 74 52 48 39 45 48 23 13 3
0 0 0 0 0 0 0 3 3 13 29 45 65 68 81 81 81 90 87 74 81 77 77 74 68 61 65 74 71 68 65 58 58 48 29 32 35 26 26 32 26 19 13 19 19 13 6 6 3
0 0 0 0 0 0 0 3 6 16 35 55 65 68 68 77 77 77 77 74 68 74 77 81 61 52 45 48 55 58 52 52 39 35 32 32 23 19 19 16 13 10 10 10 0 3 0 0 0
0 0 0 0 0 0 0 0 3 26 42 45 61 65 68 71 65 74 77 71 74 71 74 65 58 45 35 29 35 42 42 42 39 35 29 32 26 19 16 19 6 3 6 6 3 3 0 0 0
0 0 0 0 0 0 0 3 3 19 29 39 45 58 68 61 68 68 71 74 68 68 71 58 52 45 29 23 32 39 32 35 39 32 26 32 26 19 16 13 10 3 3 6 3 3 0 0 0
0 0 0 0 0 0 0 3 3 19 26 23 35 55 65 71 71 71 71 71 58 61 61 55 55 48 35 35 39 42 39 39 39 32 35 32 26 23 16 16 10 6 13 3 0 0 0 0 0
0 0 0 0 0 0 0 0 3 6 23 23 32 58 61 65 65 61 74 65 61 68 58 55 48 45 39 35 42 32 39 35 42 29 29 29 26 23 10 13 10 3 6 3 0 0 0 0 0
0 0 0 0 0 0 0 0 3 3 6 19 39 52 61 58 65 58 65 61 61 58 48 42 39 39 39 39 42 39 32 32 35 29 23 26 29 23 6 3 6 0 0 0 0 0 0 0 0
0 0 0 0 0 0 0 0 3 3 3 19 32 55 55 61 68 61 58 58 65 52 48 45 42 32 35 39 42 35 39 39 32 29 26 26 29 19 10 6 3 3 3 0 0 0 0 0 0
0 0 0 0 0 0 0 0 3 3 6 16 32 48 65 61 65 68 61 65 58 55 48 45 42 35 35 35 32 29 29 29 23 23 23 32 23 16 10 6 3 0 0 0 0 0 0 0 0
0 0 0 0 0 0 0 0 3 10 6 13 26 39 74 65 68 71 58 55 58 52 55 52 42 35 35 35 29 23 23 19 23 23 16 13 16 19 6 0 3 3 0 0 0 0 0 0 0
0 0 0 0 0 0 0 0 0 6 13 16 23 39 48 61 61 61 61 58 58 52 52 48 48 42 32 32 29 19 23 19 16 16 13 10 10 13 0 0 0 0 0 0 0 0 0 0 0
0 0 0 0 0 0 0 0 0 6 10 13 16 32 45 58 55 52 61 61 48 45 45 45 45 39 35 35 29 23 19 10 6 10 10 6 6 6 6 0 0 0 0 0 0 0 0 0 0
0 0 0 0 0 0 0 0 0 3 10 10 10 29 48 42 48 55 58 55 48 42 39 42 45 39 39 39 29 16 13 13 13 3 6 3 6 3 0 0 0 0 0 0 0 0 0 0 0
0 0 0 0 0 0 0 0 0 0 6 10 16 23 42 35 39 45 48 52 52 45 39 42 42 42 35 26 19 16 10 10 10 3 3 0 0 0 3 3 3 0 0 0 0 0 0 0 0
0 0 0 0 0 0 0 0 0 0 6 10 23 23 35 35 32 39 48 48 48 39 42 42 42 42 35 26 19 19 10 10 10 3 3 0 0 0 0 0 3 3 0 0 0 0 0 0 0
0 0 0 0 0 0 0 0 0 3 6 16 26 23 35 32 35 35 42 39 35 42 42 45 35 32 29 26 23 19 16 13 10 3 0 0 0 0 0 3 3 3 0 0 0 0 0 0 0
0 0 0 0 0 0 0 0 0 0 6 10 23 19 16 23 35 32 35 39 39 39 35 39 35 39 35 29 26 29 19 16 10 0 0 0 0 0 0 3 3 3 0 0 0 0 0 0 0
0 0 0 0 0 0 0 0 0 0 0 3 10 10 10 16 23 29 29 39 39 35 39 35 35 39 32 35 16 23 23 13 10 3 0 0 0 0 0 3 3 3 0 0 0 0 0 0 0
0 0 0 0 0 0 0 0 0 0 0 0 10 13 10 16 23 26 26 35 35 35 35 35 35 35 26 23 19 23 19 13 10 3 0 0 0 0 0 3 3 0 0 0 0 0 0 0 0

GEFSSGP_con_cape1000_162.txt.gz
Probability
6 16 16 3 0 0 0 0 0 6 6 0 3 6 6 6 3 0 0 13 32 61 84 97 100 97 100 100 97 97 94 90 90 90 94 94 90 87 87 90 87 84 84 87 84 84 90 87 87
6 10 3 3 0 0 0 0 0 3 6 3 16 19 32 48 23 16 16 39 55 74 81 90 97 97 97 100 100 97 94 90 90 90 90 90 90 87 84 87 87 87 87 87 84 84 87 84 87
3 3 3 3 0 0 0 0 3 13 10 16 26 42 48 65 42 23 29 45 65 74 77 90 97 97 97 97 97 100 94 90 90 90 90 94 90 90 90 87 87 87 87 87 87 90 87 87 84
0 0 0 0 0 0 0 0 6 13 13 29 45 48 61 68 61 55 52 68 71 74 81 94 97 97 97 97 97 97 97 94 90 90 90 90 90 90 87 87 84 87 87 87 87 90 87 87 84
0 0 0 0 0 0 0 0 10 13 16 42 55 68 68 74 68 55 58 81 71 81 87 94 97 97 97 97 97 97 97 97 94 94 90 90 90 90 87 84 87 90 90 90 90 90 90 90 87
0 0 0 0 0 0 0 0 6 13 29 52 61 68 74 71 58 58 65 71 77 87 90 97 97 97 97 97 97 97 97 97 97 94 90 90 90 90 87 84 90 87 90 87 84 81 81 77 87
0 0 0 0 0 0 3 6 6 16 32 55 61 71 77 74 61 68 71 71 87 87 94 97 97 97 97 97 100 97 97 97 97 97 90 90 87 87 87 87 84 84 81 81 81 77 71 77 87
0 0 0 0 0 0 0 6 10 16 19 52 71 65 74 81 68 68 71 84 87 87 87 97 97 94 97 97 100 100 97 97 97 97 94 90 87 81 90 90 90 84 81 84 84 77 77 81 90
0 0 0 0 0 0 0 3 3 13 39 52 65 81 77 77 71 68 77 87 84 84 81 90 90 90 94 97 100 100 100 97 97 94 94 87 61 74 84 84 87 74 81 77 77 77 81 87 90
0 0 0 0 0 0 0 0 3 16 39 48 81 87 84 77 71 68 68 71 68 77 81 87 87 87 90 97 94 94 97 97 87 81 68 52 42 48 68 84 81 81 71 71 77 84 61 29 29
0 0 0 0 0 0 0 0 3 13 26 45 81 87 84 81 77 65 55 55 61 68 81 84 87 87 81 71 84 77 74 71 61 61 42 35 35 42 39 58 58 39 39 32 35 32 10 0 10
0 0 0 0 0 0 0 0 3 6 6 23 81 87 81 81 77 65 48 52 55 61 74 81 81 74 58 71 77 74 68 61 58 42 42 32 29 16 26 26 29 26 19 19 16 10 3 6 3
0 0 0 0 0 0 0 0 3 6 19 45 87 87 81 81 77 61 48 45 52 61 68 74 77 61 48 65 68 71 65 55 45 35 35 26 23 16 19 16 13 10 6 6 3 0 0 3 3
0 0 0 0 0 0 3 3 3 10 35 68 81 94 84 81 84 77 61 48 45 45 52 61 65 55 45 58 48 52 42 39 35 32 32 26 19 19 19 10 10 6 10 6 3 0 0 0 6
0 0 0 0 0 3 3 3 3 19 45 68 81 87 87 87 77 71 61 48 42 29 39 52 61 48 35 35 39 35 26 26 29 26 26 26 19 16 10 13 10 6 6 6 3 0 0 0 0
0 0 0 0 0 0 0 3 3 16 48 65 77 81 81 77 81 74 61 45 35 23 29 45 58 42 32 35 23 23 26 26 26 26 26 29 23 16 10 10 10 6 3 3 0 0 0 0 0
0 0 0 0 0 0 0 0 3 19 32 45 71 65 71 68 68 68 68 52 39 29 19 32 23 39 29 19 16 10 13 16 13 13 19 23 23 19 10 10 6 6 0 0 3 0 0 0 0
0 0 0 0 0 0 0 0 6 19 23 35 61 58 61 61 55 58 65 55 45 26 19 23 19 16 19 16 13 6 6 6 3 6 16 13 23 16 10 6 3 3 0 0 0 0 0 0 0
0 0 0 0 0 0 0 0 3 13 19 23 29 45 45 32 45 48 55 52 48 32 19 16 19 16 16 10 13 10 10 10 6 10 13 16 13 16 13 6 3 0 0 0 0 0 0 0 0
0 0 0 0 0 0 0 3 3 6 16 10 26 32 39 32 45 45 52 61 48 42 26 19 19 16 13 10 13 13 6 6 10 10 13 13 13 13 10 3 0 0 0 0 0 0 0 0 0
0 0 0 0 0 0 0 0 0 6 10 6 16 23 26 32 39 45 48 55 52 45 32 26 23 13 13 10 6 10 3 3 3 6 6 10 10 13 6 0 0 0 0 0 0 0 0 0 0
0 0 0 0 0 0 0 0 3 6 10 10 13 26 29 39 42 52 48 52 52 48 35 29 26 16 13 10 10 13 10 10 3 3 3 0 6 3 3 0 0 0 0 0 0 0 0 0 0
0 0 0 0 0 0 0 0 0 3 13 13 13 16 19 29 45 55 52 48 45 42 42 32 23 26 16 10 10 10 6 3 3 3 3 0 0 0 3 3 0 0 0 0 0 0 0 0 0
0 0 0 0 0 0 0 0 0 0 6 10 19 23 19 32 39 45 45 42 45 39 35 35 23 26 23 10 10 10 10 3 3 6 6 6 0 0 0 0 0 0 0 0 0 0 0 0 0
0 0 0 0 0 0 0 0 0 0 0 10 19 26 23 29 32 35 39 52 48 45 35 32 23 23 16 16 16 13 6 3 3 3 6 3 3 3 0 0 0 0 0 0 0 0 0 0 0
0 0 0 0 0 0 0 0 0 3 3 6 10 23 26 29 29 39 42 48 48 42 35 26 23 19 19 16 16 13 3 3 3 0 0 0 0 0 0 0 0 0 0 0 0 0 0 0 0
0 0 0 0 0 0 0 0 0 0 3 3 6 6 16 23 29 26 39 42 45 42 29 29 23 16 16 16 10 3 3 3 0 0 0 0 0 0 0 0 0 0 0 0 0 0 0 0 0
0 0 0 0 0 0 0 0 0 0 3 3 6 10 10 13 10 19 23 35 32 29 19 23 19 16 19 13 13 10 3 3 3 0 0 0 0 0 0 0 0 0 0 0 0 0 0 0 0
0 0 0 0 0 0 0 0 0 0 3 3 3 6 10 13 10 13 13 16 23 32 23 19 19 13 13 13 13 6 6 6 3 0 0 0 0 0 0 0 0 0 0 0 0 0 0 0 0
0 0 0 0 0 0 0 0 0 0 0 3 3 3 6 13 13 10 19 16 16 16 16 19 19 13 13 13 13 13 6 3 3 3 0 0 0 0 0 0 0 0 0 0 0 0 0 0 0

GEFSSGP_con_cape1000_168.txt.gz
Probability
16 19 23 32 35 0 0 3 3 0 3 3 0 6 3 3 10 39 39 10 23 45 65 90 97 97 94 94 94 94 90 90 94 97 97 97 94 94 94 94 87 90 94 84 90 90 87 87 84
13 13 13 16 0 0 0 0 3 6 6 19 16 16 19 32 42 55 32 19 39 58 71 81 97 97 97 100 97 97 90 90 94 94 97 94 94 94 94 90 90 87 90 84 90 90 90 87 87
6 10 3 3 0 0 0 3 6 6 23 23 26 35 35 55 58 58 55 45 58 61 77 97 97 97 97 94 94 97 94 94 94 94 94 90 90 90 87 87 87 87 87 87 94 94 94 87 90
3 3 3 0 0 0 0 10 10 19 29 29 26 35 71 65 65 61 61 45 58 65 74 97 97 97 97 97 97 97 97 97 97 97 97 97 94 90 90 90 87 87 87 90 94 90 87 84 84
3 3 0 0 0 0 0 10 10 19 32 35 29 42 74 81 71 65 68 52 48 58 74 94 97 97 97 97 97 97 97 97 97 97 97 97 94 90 90 90 90 90 90 94 90 90 81 84 77
0 0 0 0 0 0 0 10 10 6 26 35 26 42 90 87 77 84 74 58 45 45 74 97 97 97 97 97 97 97 97 97 94 94 97 97 94 94 90 90 90 90 94 90 90 94 90 81 87
0 0 0 0 0 0 3 10 6 10 19 26 26 45 84 87 87 94 81 65 52 52 84 97 97 97 97 97 97 97 97 97 97 97 97 97 94 94 94 90 90 94 90 90 94 90 94 87 87
0 0 0 0 0 0 3 6 10 10 23 42 32 45 74 97 94 97 87 77 65 65 87 81 94 100 100 97 97 97 97 97 97 94 97 97 94 94 90 87 90 87 90 90 77 81 81 90 87
0 0 0 0 0 0 3 3 6 6 39 58 42 55 77 100 94 97 90 90 87 81 90 90 94 94 90 87 94 97 97 97 90 97 87 87 77 68 71 77 84 81 77 74 74 71 74 77 81
0 0 0 0 0 0 3 6 6 10 29 58 87 97 100 100 100 100 97 97 97 97 94 94 97 94 90 90 100 97 94 97 90 90 90 77 87 77 71 77 81 77 68 68 74 77 65 58 55
0 0 0 0 0 0 0 0 3 6 6 35 74 100 100 100 100 97 97 100 100 100 94 97 100 97 94 100 100 100 94 100 97 90 94 94 81 71 71 65 77 81 71 58 65 58 42 35 55
0 0 0 0 0 0 0 0 0 3 13 16 68 100 100 100 100 97 97 100 100 100 100 97 100 100 97 97 100 97 97 100 90 94 84 81 87 74 74 77 65 71 68 74 55 58 52 55 35
0 0 0 0 0 0 0 0 0 6 13 39 81 100 100 100 100 97 94 94 100 100 97 97 97 97 97 100 100 97 94 94 90 94 90 81 81 77 77 77 68 48 58 68 71 55 65 55 48
0 0 0 0 0 0 0 3 0 13 23 52 84 100 100 100 100 100 97 97 100 100 97 97 97 97 97 97 97 97 97 97 84 90 84 84 77 81 77 84 68 58 55 52 55 48 68 55 65
0 0 0 0 0 0 0 3 3 23 26 48 81 97 100 100 100 100 100 100 100 100 97 94 97 97 97 97 97 90 94 94 87 87 97 87 77 81 77 58 65 58 55 71 61 61 61 52 55
0 0 0 0 0 3 0 0 19 26 32 48 71 94 100 100 100 100 100 100 100 100 100 94 90 97 97 97 97 90 94 94 87 90 97 90 84 71 81 71 58 71 58 58 61 58 48 55 55
0 0 0 0 3 6 0 0 26 26 32 45 71 87 100 100 100 97 97 94 94 94 90 90 94 97 94 90 94 94 94 90 84 77 94 90 81 81 77 81 77 71 58 48 29 52 52 48 52
0 0 0 0 3 3 0 3 26 29 32 45 58 81 94 97 97 94 94 94 87 84 90 90 90 94 90 90 94 94 94 87 81 81 90 87 90 84 77 84 87 65 55 65 52 55 55 48 52
0 0 0 0 3 3 3 3 16 32 35 39 58 74 81 94 94 97 94 90 84 84 90 90 90 94 97 87 90 90 94 90 84 71 81 81 84 84 87 65 84 81 68 65 39 52 42 45 52
0 0 0 0 3 3 3 3 19 29 42 42 61 61 81 87 94 90 90 87 84 84 84 90 90 87 94 90 90 90 84 77 74 71 87 84 81 84 68 84 77 77 81 68 68 65 55 32 35
0 0 0 0 3 3 3 3 16 19 29 45 48 58 74 84 94 90 90 84 84 81 84 81 87 87 90 87 84 81 87 77 68 77 77 84 74 84 77 77 74 81 77 71 77 71 52 35 35
0 0 0 0 0 0 0 0 10 19 26 32 45 58 77 84 84 94 90 84 81 81 77 77 87 87 90 81 74 71 81 61 68 71 71 77 74 77 87 81 77 77 55 71 52 32 35 48 32
0 0 0 0 0 0 0 0 3 16 16 26 35 48 74 77 77 94 90 87 81 74 74 81 81 90 94 77 74 77 68 71 58 68 71 77 71 74 77 77 68 77 71 61 55 48 48 35 29
0 0 0 0 0 0 0 0 3 10 19 26 32 52 74 71 68 81 84 84 81 77 77 77 81 84 87 84 74 74 74 71 61 61 68 68 68 74 61 71 77 74 71 77 68 65 55 45 39
0 0 0 0 0 0 0 0 3 19 13 29 42 55 65 74 77 77 77 87 84 84 77 71 77 81 77 77 74 77 71 68 61 61 52 65 58 65 68 61 81 74 81 74 71 65 52 42 52
0 0 0 0 0 0 0 0 13 16 23 35 52 61 68 61 81 77 74 81 81 81 74 74 74 77 77 68 65 68 68 65 52 58 52 55 52 52 68 68 68 68 65 48 71 52 48 58 58
0 0 0 0 0 0 0 6 16 16 23 35 45 65 74 71 77 77 74 68 68 65 68 65 71 68 68 65 61 68 65 55 48 52 52 48 52 42 58 61 61 61 65 65 68 55 58 58 42
0 0 0 0 0 0 0 3 10 26 32 42 55 65 65 68 68 71 71 68 65 68 65 61 58 68 68 65 55 52 55 58 58 58 48 55 48 55 58 55 48 45 45 52 71 52 58 58 58
0 0 0 0 0 0 0 0 6 26 32 48 48 58 68 61 61 68 68 71 71 58 58 61 58 61 65 61 52 48 48 58 58 58 58 55 58 58 58 55 61 52 48 52 61 39 52 55 55
0 0 0 0 0 0 0 3 10 26 45 42 52 61 58 65 68 65 68 74 65 61 58 55 48 52 42 39 39 42 52 55 52 55 52 55 55 52 58 52 52 45 45 58 58 55 45 52 48

GEFSSGP_con_cape1000_174.txt.gz
Probability
3 10 16 35 42 45 6 0 0 0 0 0 0 0 13 23 29 26 29 42 55 58 74 90 97 94 90 90 90 90 87 94 97 97 94 90 97 97 90 87 87 87 84 84 90 84 84 81 74
3 13 13 19 26 3 0 0 0 0 0 0 3 3 6 16 13 16 32 52 55 42 65 90 97 94 90 90 90 90 90 94 94 94 90 90 90 90 90 87 94 87 87 87 84 84 84 71 71
13 13 13 13 13 0 0 0 0 0 0 0 3 26 35 35 35 42 45 58 58 65 81 94 94 90 90 90 94 90 90 90 94 94 90 90 90 94 94 94 94 90 84 87 87 77 74 74 71
16 10 6 3 0 0 0 0 0 0 0 3 16 32 39 35 45 45 48 52 65 74 84 94 97 94 90 90 94 90 90 90 90 94 90 90 90 90 90 90 90 90 94 90 84 81 77 77 68
6 6 0 0 0 0 0 0 0 0 0 13 39 45 48 55 55 52 55 58 65 77 90 94 97 97 97 97 97 90 90 90 90 90 94 90 90 90 87 90 90 94 94 87 84 81 81 77 55
3 0 0 0 0 0 0 0 3 3 10 23 45 52 55 61 61 58 58 71 81 84 90 94 100 97 97 97 97 97 97 97 97 100 94 90 90 90 90 94 94 94 90 84 81 77 84 68 55
0 0 0 0 0 0 0 0 0 0 10 10 45 58 58 68 65 71 68 77 84 84 90 94 97 97 97 97 100 100 97 97 97 97 97 94 94 90 90 94 94 94 87 84 81 77 81 65 52
0 0 0 0 0 0 0 0 3 6 10 10 35 55 84 77 65 71 65 77 87 84 87 90 97 97 97 94 100 100 100 97 97 97 97 94 94 94 90 90 94 87 77 77 84 84 77 65 48
0 0 0 0 0 0 0 0 0 6 6 16 39 71 87 77 71 71 68 77 87 87 90 94 97 97 97 94 94 97 97 100 97 90 90 90 94 74 84 77 81 74 81 74 71 71 68 61 48
0 0 0 0 0 0 0 0 0 6 16 26 68 84 90 84 77 77 71 81 87 87 94 94 97 97 94 90 97 97 87 97 97 94 97 97 97 90 77 84 77 74 71 68 71 55 58 45 32
0 0 0 0 0 0 0 0 0 3 13 52 87 94 94 97 94 94 90 100 100 100 100 100 100 100 100 100 100 100 97 97 97 97 97 97 94 87 81 81 84 77 68 71 68 65 48 58 48
0 0 0 0 0 0 0 0 0 3 6 48 81 94 97 100 100 97 97 100 100 100 100 100 97 100 100 100 100 100 100 100 97 94 97 97 97 97 97 97 84 90 90 90 77 87 65 68 61
0 0 0 0 0 0 0 0 3 3 10 52 84 94 97 100 100 100 100 100 100 100 100 100 100 100 100 100 100 97 100 97 94 94 94 97 97 94 97 94 94 90 84 90 90 87 81 71 77
0 0 0 0 0 0 0 0 3 6 16 55 77 87 94 97 97 97 100 100 100 100 100 100 97 97 100 97 100 100 100 100 97 97 97 94 97 97 97 97 97 97 87 90 94 84 87 81 77
0 0 0 0 0 0 0 0 6 10 19 55 74 87 97 100 97 97 100 100 100 100 100 97 97 97 94 94 94 94 100 100 97 100 97 97 97 97 97 97 97 90 90 87 94 87 84 77 77
0 0 0 0 0 0 0 3 6 13 19 45 68 84 97 100 100 100 100 100 100 100 100 97 97 97 94 94 94 94 97 97 97 97 97 97 97 97 97 97 97 97 97 97 94 84 84 77 81
0 0 0 0 0 0 0 3 6 13 19 42 68 84 90 97 100 100 100 100 100 100 97 94 97 97 94 94 97 94 94 94 90 94 97 97 94 94 97 94 94 94 94 94 74 77 84 81 81
0 0 0 0 0 0 0 3 13 13 16 32 42 65 87 97 97 100 100 100 100 94 94 90 97 94 94 94 97 94 94 94 94 97 100 97 90 90 97 97 100 97 97 94 90 84 87 84 77
0 0 0 0 0 0 3 3 3 10 16 26 39 65 74 94 100 100 100 94 97 90 90 90 90 94 90 94 90 94 94 94 90 94 90 100 97 94 97 94 97 94 100 87 84 74 77 77 84
0 0 0 0 0 0 3 0 3 3 13 23 35 58 74 87 94 97 97 97 97 94 90 90 84 90 87 94 94 94 90 94 87 90 87 90 97 97 84 97 94 97 97 84 87 81 87 71 81
0 0 0 0 0 0 3 6 10 6 10 16 29 48 58 84 100 94 94 94 97 90 87 84 81 81 84 90 90 90 90 90 87 87 87 90 90 90 94 94 87 94 90 87 84 90 84 84 84
0 0 0 0 0 0 3 3 10 13 13 16 23 39 55 77 90 97 94 94 94 87 87 87 84 84 87 90 87 87 87 90 87 90 84 87 87 87 87 87 87 94 84 94 84 87 90 84 71
0 0 0 0 3 3 3 3 3 6 13 16 26 39 45 71 90 97 97 94 87 87 87 87 87 84 87 90 94 94 94 90 87 84 81 77 87 87 81 81 71 81 87 90 81 84 84 81 74
0 0 0 0 0 0 3 0 3 6 6 13 26 45 61 74 87 90 97 97 94 87 87 87 90 87 87 94 94 94 100 94 81 81 81 74 81 87 77 74 77 77 84 84 87 90 81 81 74
0 0 0 0 3 0 0 0 10 13 6 13 23 35 55 77 77 90 94 94 94 87 87 87 87 87 90 97 94 97 97 87 84 84 77 74 77 71 74 71 77 77 81 81 81 77 84 84 84
0 0 0 0 0 0 0 0 13 10 13 16 35 48 58 71 81 90 87 94 90 87 87 84 87 87 90 94 97 97 87 81 84 84 77 71 71 65 74 74 71 71 81 77 81 74 77 81 81
0 0 0 0 0 0 0 6 23 23 23 26 39 55 58 71 77 87 84 87 87 84 84 84 87 87 84 90 90 97 87 90 90 90 77 71 74 65 71 74 68 71 74 74 77 68 65 77 68
0 0 0 0 10 0 0 10 13 32 29 35 45 48 55 68 77 84 84 84 87 81 77 77 81 84 87 87 87 84 90 94 90 87 77 77 74 74 65 68 68 71 71 68 65 68 65 65 68
0 0 0 0 6 0 0 3 10 39 35 35 45 52 58 68 71 84 84 87 84 77 77 77 77 81 87 84 84 87 77 81 84 87 77 81 84 81 65 65 58 65 65 65 61 55 61 61 65
0 0 0 0 10 0 0 16 13 19 29 45 55 48 48 55 55 74 81 84 77 71 71 71 71 74 81 77 81 84 84 81 77 77 81 81 77 74 74 71 68 58 52 58 58 52 45 55 48

GEFSSGP_con_cape1000_180.txt.gz
Probability
13 3 3 13 10 6 0 0 0 0 3 0 0 3 3 6 0 3 0 23 45 65 74 90 97 97 97 97 97 97 97 97 97 97 97 94 94 94 94 94 94 97 94 94 87 81 81 84 77
0 3 10 13 6 0 0 0 0 0 0 0 6 6 16 23 19 19 16 35 52 65 65 90 97 97 97 97 97 97 97 97 97 97 94 90 94 94 97 94 90 90 94 87 84 84 77 74 84
0 3 10 10 3 0 0 0 0 0 0 3 13 16 23 29 45 26 26 45 52 55 71 90 97 94 94 97 97 97 97 97 97 97 94 90 94 94 90 94 90 94 90 84 81 81 71 71 87
0 3 3 0 0 0 0 0 0 6 10 13 23 32 19 39 45 26 32 42 58 68 81 90 97 94 94 90 97 97 97 97 97 97 94 94 97 97 94 94 94 90 90 84 81 77 71 81 81
0 0 0 0 0 0 0 0 3 16 19 23 26 35 32 42 39 32 42 52 65 71 90 90 94 94 90 90 90 97 97 97 97 97 94 94 94 97 97 97 90 87 84 84 81 77 74 77 84
0 0 0 0 0 0 0 0 6 19 29 26 26 32 32 42 32 35 45 55 71 90 90 90 94 90 90 94 94 94 97 97 97 97 97 94 94 97 97 97 90 84 84 87 81 71 61 65 71
0 0 0 0 0 0 0 0 13 26 35 23 23 26 23 39 42 48 45 52 71 90 90 90 94 90 94 97 97 97 97 100 100 97 97 94 94 94 94 94 90 87 87 87 84 71 61 61 77
0 0 0 0 0 0 0 0 10 26 32 26 16 32 26 29 48 52 52 48 68 90 90 90 90 90 94 94 100 100 100 100 100 97 94 94 94 94 94 94 90 87 90 90 71 68 61 61 77
0 0 0 0 0 0 0 6 6 23 35 42 48 29 35 45 58 52 58 58 55 77 84 84 87 87 84 87 94 94 97 100 97 94 94 90 81 81 90 87 90 81 77 74 68 65 65 61 61
0 0 0 0 0 0 0 6 13 26 29 39 32 42 45 55 68 68 58 58 55 65 74 77 77 81 81 90 94 94 94 90 90 87 84 52 48 45 65 87 90 74 74 68 61 65 61 35 10
0 0 0 0 0 0 0 3 10 26 39 32 48 45 52 55 68 68 65 58 48 58 71 74 68 65 65 74 77 71 71 74 74 65 52 35 42 42 39 52 65 55 45 35 42 35 19 6 6
0 0 0 0 0 0 0 3 16 29 45 39 45 45 52 61 55 68 65 58 68 71 74 68 68 61 55 65 74 58 65 61 65 61 52 35 35 29 23 23 26 26 23 23 23 19 13 10 13
0 0 0 0 0 0 0 3 23 32 48 45 45 52 48 55 58 65 61 61 65 71 74 77 65 65 68 58 55 65 55 65 61 61 55 45 32 32 26 26 26 23 13 13 16 13 13 6 13
0 0 0 0 0 0 3 3 10 32 55 45 55 52 48 55 52 58 71 65 58 58 71 71 68 68 58 58 55 58 65 61 68 58 55 52 29 29 26 19 23 16 13 6 6 13 10 6 6
0 0 0 0 0 0 3 6 19 39 52 42 52 52 55 48 52 68 71 71 65 61 71 58 71 68 68 61 68 68 65 61 65 65 52 55 39 29 29 19 19 13 10 6 3 3 3 0 3
0 0 0 0 0 0 3 6 23 42 45 45 55 61 61 52 55 65 74 74 71 68 68 74 87 74 68 65 61 61 61 52 61 55 55 58 42 32 32 16 16 19 16 10 3 0 0 0 0
0 0 0 0 0 0 0 6 16 39 48 42 55 58 68 58 65 65 71 74 74 74 77 81 87 84 74 61 61 68 65 48 52 55 55 58 45 42 32 26 13 13 19 10 6 0 0 0 0
0 0 0 0 0 0 0 6 23 45 42 58 68 68 68 71 77 74 81 81 77 77 77 81 81 77 77 58 61 65 52 58 58 55 52 52 55 39 26 26 16 19 16 3 0 0 0 0 0
0 0 0 0 0 0 3 6 19 23 42 65 61 71 74 74 77 77 84 87 81 77 81 84 77 77 77 71 65 65 55 55 52 52 52 42 52 42 26 29 19 19 13 3 3 0 0 0 0
0 0 0 0 0 0 3 6 23 26 32 48 58 65 68 77 77 74 84 87 84 84 77 81 84 74 74 71 65 52 48 52 52 48 52 48 52 42 35 16 16 13 6 3 3 0 0 0 0
0 0 0 0 0 0 0 0 6 16 23 39 52 61 65 71 81 81 77 84 87 90 81 77 77 71 65 58 55 55 55 52 39 45 55 48 48 42 35 19 16 6 6 3 3 0 0 0 0
0 0 0 0 0 0 0 0 0 0 13 26 42 58 61 65 77 77 77 87 84 81 77 77 74 71 61 58 61 52 48 45 45 32 45 52 55 48 29 19 23 3 0 0 0 0 0 0 0
0 0 0 0 0 0 0 0 0 3 10 23 35 52 68 71 77 81 81 84 81 74 74 71 74 71 68 71 61 55 45 39 29 32 39 45 39 45 39 16 19 13 0 0 0 0 0 0 0
0 0 0 0 0 0 0 0 0 3 6 16 29 52 58 71 71 77 84 77 74 77 74 74 74 74 68 71 71 68 48 42 35 39 45 35 35 35 35 32 16 13 13 6 0 0 0 0 0
0 0 0 0 0 0 0 0 0 0 3 16 19 42 55 68 71 71 71 74 71 71 71 68 74 71 68 71 71 68 58 45 42 39 35 39 39 32 32 26 16 16 6 10 3 0 0 0 0
0 0 0 0 0 0 0 0 0 3 10 19 29 35 48 65 68 71 71 68 71 71 65 68 74 71 71 68 71 65 58 55 48 35 26 35 35 35 26 23 13 16 13 6 3 3 0 0 0
0 0 0 0 0 0 0 0 6 10 10 26 26 29 42 58 74 74 71 65 68 65 61 61 68 65 65 65 61 61 58 58 45 39 29 26 19 16 23 13 6 10 6 6 6 3 3 0 0
0 0 0 0 0 0 0 0 3 10 16 23 29 29 39 55 65 61 61 68 71 71 61 61 65 65 61 58 58 55 52 45 35 35 35 29 29 23 16 10 3 0 0 0 3 3 0 0 0
0 0 0 0 0 0 0 0 3 3 13 19 32 32 48 58 61 52 58 55 58 68 68 61 61 58 58 55 48 48 42 39 29 29 29 26 23 16 16 10 10 6 6 3 3 3 3 6 6
0 0 0 0 0 0 0 0 3 3 10 19 26 32 52 39 48 55 52 52 52 55 65 61 55 65 58 52 48 45 39 35 35 35 26 19 16 13 13 16 10 10 13 6 6 3 6 10 10

GEFSSGP_con_cape1000_186.txt.gz
Probability
3 6 6 3 0 0 0 0 0 0 0 0 0 0 0 0 0 0 0 3 26 45 61 84 97 97 94 94 97 97 97 97 94 94 90 94 94 94 94 90 90 87 87 87 87 87 87 94 94
0 3 0 3 0 0 0 0 0 0 0 0 0 10 10 13 3 0 3 26 45 45 52 74 94 97 94 94 97 97 100 100 100 97 97 97 94 94 90 90 87 87 87 87 90 90 90 90 94
0 0 3 0 0 0 0 0 0 0 0 0 10 13 16 13 10 10 13 32 35 42 55 90 94 94 94 94 97 97 97 97 97 97 97 97 94 94 94 90 90 90 94 90 90 90 87 90 87
0 0 0 0 0 0 0 0 0 0 3 6 13 32 32 23 19 16 39 42 35 42 71 94 94 94 94 94 97 97 97 97 97 97 97 97 90 94 87 87 87 87 87 84 84 87 87 84 87
0 0 0 0 0 0 0 0 3 10 13 16 29 32 29 39 32 35 39 39 32 58 84 94 94 94 97 94 97 97 94 97 97 97 94 94 90 90 87 87 87 81 84 87 87 84 87 84 84
0 0 0 0 0 0 0 0 6 13 13 26 35 29 35 42 35 39 35 35 42 68 90 94 94 94 94 97 97 97 97 97 97 97 94 94 97 90 84 84 81 84 84 87 87 84 84 84 87
0 0 0 0 0 0 0 6 10 16 19 16 23 19 29 39 39 42 39 42 58 81 90 87 90 90 94 94 97 97 97 94 94 94 94 94 94 94 94 90 87 84 81 84 77 77 77 81 84
0 0 0 0 0 0 0 3 10 16 23 16 26 23 35 35 29 29 39 45 61 71 74 77 84 84 90 94 97 97 97 94 97 94 94 94 94 90 90 90 90 90 84 81 74 74 74 77 90
0 0 0 0 0 0 0 6 10 19 13 16 19 32 35 32 29 32 39 45 58 74 68 71 81 77 81 87 94 94 94 97 94 94 94 90 68 74 77 84 90 87 84 81 74 77 74 71 84
0 0 0 0 0 0 0 6 6 13 16 23 26 42 48 39 29 29 29 32 45 74 74 61 65 74 77 90 84 71 84 71 71 65 61 32 29 42 68 87 87 77 71 71 81 81 68 26 32
0 0 0 0 0 0 0 13 6 19 16 19 26 58 45 42 29 23 23 23 35 61 74 61 61 65 65 61 65 55 58 48 45 48 29 23 23 26 29 39 48 42 42 32 32 26 10 6 3
0 0 0 0 0 0 3 13 10 6 19 23 35 61 55 45 29 16 13 19 29 48 61 55 55 52 48 48 55 45 42 42 45 32 19 19 10 16 16 26 29 23 19 6 13 6 6 3 6
0 0 0 0 0 0 3 10 13 19 23 39 61 65 61 52 39 19 16 16 23 32 52 48 48 42 35 32 48 52 42 35 32 23 19 16 13 16 16 16 13 16 3 3 3 3 3 0 3
0 0 0 0 0 0 6 10 19 23 42 52 68 65 65 61 52 45 23 26 23 23 42 42 42 32 35 35 35 29 39 32 26 29 29 23 6 13 13 13 10 10 3 3 3 3 0 6 6
0 0 0 0 0 0 3 6 6 29 45 52 61 68 71 74 65 52 42 19 16 13 26 39 42 32 29 29 26 29 29 26 29 29 29 26 3 6 3 10 3 0 3 6 0 0 3 3 3
0 0 0 0 0 0 3 3 6 39 55 55 55 68 65 68 65 58 45 39 26 13 23 35 48 32 29 32 26 26 32 26 23 29 29 29 23 6 3 3 3 3 0 0 0 0 3 3 0
0 0 0 0 0 0 0 6 6 35 48 65 61 65 68 65 65 61 55 42 35 29 19 26 35 39 32 29 26 16 19 26 29 29 23 29 35 26 10 3 0 3 3 3 0 0 0 0 0
0 0 0 0 0 3 3 6 10 29 48 48 55 58 52 58 61 65 61 48 39 35 32 35 32 26 29 26 16 23 16 26 26 29 29 29 29 29 13 10 0 3 3 3 0 0 0 0 0
0 0 0 0 0 3 6 10 13 23 26 32 45 58 55 55 48 55 61 55 45 39 35 39 35 26 23 26 26 35 39 29 29 29 32 29 23 19 13 16 10 3 3 0 0 0 0 0 0
0 0 0 0 0 0 3 3 10 10 23 19 26 39 48 42 45 48 55 58 48 42 42 39 35 35 35 42 35 26 29 32 29 29 29 29 23 19 16 13 13 6 3 3 0 0 0 0 0
0 0 0 0 0 0 0 3 13 13 10 13 13 23 32 39 42 45 52 58 61 52 48 48 39 35 32 35 23 19 19 19 32 32 32 29 26 16 16 10 10 6 3 6 3 0 0 0 0
0 0 0 0 0 0 0 0 0 13 16 16 6 6 16 29 39 42 48 55 65 55 45 45 35 32 29 32 32 35 32 32 32 29 35 32 26 26 19 13 10 3 3 3 3 0 0 0 0
0 0 0 0 0 0 0 0 0 3 19 23 19 19 23 29 42 48 48 58 65 58 45 42 35 32 32 29 32 29 26 26 13 10 16 26 19 23 26 13 10 6 3 3 3 0 0 0 0
0 0 0 0 0 0 0 0 0 0 10 16 23 19 29 29 29 52 65 55 58 58 52 48 29 32 29 32 32 35 23 16 16 10 13 19 19 16 19 19 10 6 0 0 0 0 0 0 0
0 0 0 0 0 0 0 0 0 0 0 3 16 23 29 42 35 39 58 58 52 58 68 58 42 39 29 29 32 32 29 19 13 13 19 16 16 23 26 19 10 10 3 0 0 0 0 0 0
0 0 0 0 0 0 0 0 0 0 0 6 10 19 39 42 45 48 55 65 52 58 65 65 52 39 32 32 29 29 26 16 16 16 19 16 16 19 13 13 10 10 6 6 0 0 0 0 0
0 0 0 0 0 0 0 0 0 3 13 23 16 26 35 42 48 52 55 48 48 52 55 58 61 45 39 42 32 23 29 29 19 16 13 13 13 13 6 3 6 6 3 6 3 0 0 0 0
0 0 0 0 0 0 0 0 0 0 13 29 23 26 29 39 52 48 48 48 48 52 48 52 52 48 45 42 42 32 26 26 26 23 19 16 13 10 10 6 3 3 0 0 0 0 0 0 0
0 0 0 0 0 0 0 0 0 0 3 16 19 29 23 35 45 48 48 45 52 48 45 48 48 45 45 39 42 39 35 35 19 19 19 16 16 13 16 16 6 3 0 0 0 0 0 0 0
0 0 0 0 0 0 0 0 0 0 6 19 23 23 29 26 29 42 48 48 45 42 48 55 55 52 45 45 42 42 35 32 29 26 26 16 13 13 13 13 10 10 10 3 3 3 3 0 0

GEFSSGP_con_cape1000_192.txt.gz
Probability
16 16 19 23 10 0 0 0 0 0 0 0 0 0 0 0 0 3 10 6 6 13 48 74 94 100 97 94 90 97 97 97 90 94 90 94 94 90 87 90 87 84 87 90 87 84 90 94 90
13 13 10 6 0 0 0 3 0 0 0 0 0 0 6 19 6 10 6 6 13 32 55 68 97 100 97 100 97 100 97 90 90 94 90 87 90 87 87 90 90 87 87 90 87 87 87 90 90
6 10 6 0 0 0 0 3 0 0 0 3 3 6 10 23 6 3 16 10 32 39 65 90 97 97 97 97 97 97 97 94 90 90 90 90 90 90 90 90 90 87 90 90 90 90 87 87 84
6 6 3 0 0 0 0 0 0 0 3 3 0 6 19 13 10 16 29 19 29 39 55 84 94 94 97 94 97 97 94 94 97 90 90 90 90 94 94 94 94 90 90 87 87 87 90 87 87
3 3 0 0 0 0 0 0 0 3 16 10 0 6 32 35 19 29 29 23 32 32 55 74 94 94 94 97 94 94 90 94 90 90 90 90 90 90 94 90 90 87 87 87 87 90 90 90 90
0 0 0 0 0 0 0 3 10 6 13 10 0 3 39 45 32 29 23 26 26 45 52 84 94 94 94 94 94 97 100 100 90 90 90 94 87 87 87 90 84 84 87 84 90 90 87 87 87
0 0 0 0 0 0 0 3 10 10 13 10 3 6 42 52 55 39 45 32 32 42 65 87 90 97 97 94 97 97 97 97 97 97 90 87 87 90 87 87 84 87 87 87 77 77 71 81 84
0 0 0 0 0 0 0 10 13 10 19 23 13 16 29 68 55 55 48 52 58 61 61 71 87 94 90 94 97 97 97 97 97 97 94 87 90 87 84 84 84 81 84 84 84 84 84 81 77
0 0 0 0 0 0 10 10 13 23 26 26 32 23 42 68 61 58 55 61 71 68 74 68 87 84 81 74 97 97 97 94 97 94 90 84 71 55 74 77 84 77 74 74 81 81 81 77 74
0 0 0 0 0 0 3 10 13 16 26 48 65 68 71 65 65 65 65 61 68 71 77 77 84 74 74 68 97 90 84 87 90 87 87 84 90 77 58 87 84 77 68 74 74 74 58 61 48
0 0 0 0 0 0 3 10 10 10 13 29 65 81 74 65 65 65 58 65 65 74 71 81 87 71 68 87 87 87 87 90 87 84 84 87 81 68 65 74 84 71 58 55 68 45 52 32 45
0 0 0 0 0 0 3 10 10 6 16 29 68 77 81 68 68 68 68 65 68 71 74 77 94 90 90 77 77 81 77 77 77 87 68 71 68 61 68 74 68 61 71 74 42 65 52 52 39
0 0 0 0 0 3 3 6 10 16 32 48 71 77 77 71 68 65 65 65 68 77 84 94 94 94 94 97 84 71 74 71 77 87 74 65 58 52 52 74 74 45 58 58 52 48 65 61 42
0 0 0 0 3 3 6 10 13 26 45 74 74 74 71 65 65 65 68 65 77 81 87 94 94 94 94 94 97 90 68 94 74 68 68 68 55 58 58 71 74 52 55 45 52 39 58 65 42
0 0 0 0 0 3 3 16 16 48 61 74 74 68 68 71 71 74 81 87 84 87 90 97 94 94 97 97 97 74 74 84 81 84 94 90 68 74 61 68 68 55 58 74 65 58 48 48 48
0 0 0 0 0 0 0 6 29 55 61 68 71 71 77 81 74 74 84 90 87 87 97 97 84 94 94 100 100 81 74 81 84 84 90 87 74 81 77 65 58 71 55 61 68 45 42 42 45
0 0 0 0 0 0 0 6 42 48 58 65 71 74 87 87 77 77 84 90 87 87 97 100 94 94 90 100 97 94 97 94 84 87 84 94 84 74 77 65 68 71 55 55 52 45 52 42 45
0 0 0 0 0 0 3 10 39 52 48 61 74 77 94 94 90 84 87 87 100 100 100 100 97 97 94 97 97 97 97 97 97 90 100 94 90 77 77 68 71 65 65 74 68 61 68 61 58
0 0 0 0 3 0 0 13 26 52 48 55 84 94 97 94 94 94 94 94 100 100 100 100 100 97 97 97 100 97 97 97 97 97 94 100 87 81 87 65 77 74 74 71 48 58 61 65 61
0 0 0 0 3 3 3 3 23 42 58 61 61 94 97 94 94 94 94 90 97 97 100 100 97 94 97 100 97 100 97 94 94 90 97 90 84 87 77 84 71 74 84 74 74 74 65 48 52
0 0 0 0 0 3 3 3 23 29 45 52 58 77 84 94 94 94 94 97 97 97 97 97 97 94 97 100 100 90 97 94 90 90 94 94 87 81 87 81 77 71 65 81 84 81 81 65 55
0 0 0 0 0 0 0 0 3 26 32 52 55 68 74 87 90 94 97 97 97 97 97 97 94 94 97 97 97 97 87 90 87 87 90 87 84 84 84 84 77 81 71 81 81 58 81 84 71
0 0 0 0 0 0 0 0 0 19 29 39 58 58 68 77 90 94 97 100 97 97 97 94 94 94 97 97 97 97 94 87 90 84 90 90 87 87 90 84 84 84 84 81 81 77 81 81 65
0 0 0 0 0 0 0 0 0 6 13 32 52 55 61 74 84 90 94 100 94 97 94 97 97 97 94 94 94 97 94 90 87 90 87 90 84 90 84 87 84 84 87 84 90 84 77 87 87
0 0 0 0 0 0 0 0 0 3 13 32 42 45 61 65 87 94 94 90 100 97 97 97 97 97 97 97 90 87 90 87 90 94 90 94 90 90 90 77 84 84 87 84 81 84 81 71 81
0 0 0 0 0 0 0 0 6 0 16 32 35 45 45 55 74 90 90 90 94 97 97 97 94 87 87 84 84 90 84 81 77 87 77 84 77 74 71 74 77 84 84 77 87 87 81 74 81
0 0 0 0 0 0 0 0 6 10 26 29 45 52 45 55 65 81 77 84 87 84 87 87 87 87 84 84 81 87 71 77 77 81 77 65 74 68 74 68 68 71 71 71 77 74 77 84 81
0 0 0 0 0 0 0 0 0 16 13 35 35 55 55 55 68 74 74 84 81 81 77 81 77 77 81 84 77 58 61 68 74 77 74 71 74 65 68 65 61 71 71 71 71 68 71 74 71
0 0 0 0 0 0 0 0 3 6 19 35 42 55 65 58 55 65 74 77 77 77 74 77 77 77 74 77 71 68 65 68 71 71 61 61 68 68 71 71 65 65 65 68 74 58 61 65 74
0 0 0 0 0 0 0 0 3 13 29 39 55 68 71 74 65 65 61 74 74 74 74 71 71 68 74 68 74 71 71 68 65 71 68 68 68 65 65 61 61 65 68 68 68 68 52 52 55